Location: Althorst
(53.6379°N, 10.7715°E)
Time: 05:42:53
(UTC+00:00)

NOSS 3-4 (C) - Pass Details

Date: 10 December 2019
Orbit: 904 x 1309 km, 63.4° (Epoch: 19 January)

Event Time Altitude Azimuth Distance (km) Brightness Sun altitude
Rises 16:11:45 0° 227° (SW) 3,532 8.0 -10.2°
Reaches altitude 10° 16:14:11 10° 227° (SW) 2,612 7.1 -10.5°
Maximum altitude 16:20:16 88° 316° (NW) 968 3.5 -11.4°
Enters shadow 16:26:04 14° 48° (NE) 2,532 5.1 -12.1°
